NOAA 16 DEB, 41257

Orbit data source: Space-Track

NOAA 16 DEB, 41257 is space debris in SSO originally from a launch on Thu, 21 Sep 2000 UTC launched from the Air Force Western Test Range (AFWTR). Debris objects in space refer to the collection of defunct objects orbiting the Earth. Examples of debris include non-operational satellites, rocket bodies, and fragments generated from explosions, collisions, or faulty payload assembly.

Loading next visibility...
Identifier
41257, 2000-055FH
Orbit
SSO
Country
Flag of USUS
Related business
Manufacturer
Unknown
Mission
Spacecraft
Bus & Motor
Unknown
Mass
Unknown
Launch date (UTC)
2000-09-21 (25 years ago)
Launch vehicle
Unknown
Launch site
Air Force Western Test Range (AFWTR)
Object type
Payload
Rocket body
Debris
Shape & HBR
Unknown shape, 0.1 m
Radar Cross Section
Small (<0.1 m²)

Expand to show TLE details & history
Last TLE update: 2 days ago

TLE from 2 days ago
0 NOAA 16 DEB
1 41257U 00055FH  26033.33219030  .00122974  00000-0  86835-2 0  9991
2 41257  98.9197 228.4071 0011814 317.0391  42.9908 15.04264123524648
Epoch: 2026-02-02T07:58Z
TLE epoch observation values (Epoch: 2026-02-02T07:58:21.241Z)
Latitude
0.00001°
Longitude
-23.7104°
Altitude
550.8 km
Speed
7.59 km/s
True Right ascension
15h 13m 37s
True Declination
0° 00' 00"
Sunlit
Object was in daylight at epoch
Visualization orbit readout
Latitude
Unknown
Longitude
Unknown
Altitude
Unknown
Speed
Unknown
Apparent Right ascension
Unknown
Apparent Declination
Unknown
Sunlit
N/A
Visualization observer readout
Local Sidereal Time
00:56:17
Azimuth
Unknown
Elevation
Unknown
Doppler factor
Unknown
Orbital elements
Apogee altitude
559.009 km
Perigee altitude
542.637 km
Semi-major axis
6,928.96 km
Eccentricity
0.00118
Inclination
98.9197°
RAAN
228.4071°
Arg. of periapsis
317.0391°
True anomaly
43.08321°
Mean anomaly
42.9908°
Eccentric anomaly
43.037°
Mean motion
3.76306 °/min
Orbital period
95.67 mins
BSTAR
0.0086835
Loading maneuver chart data...
Computing Atmospheric mass density...
Loading historical data...
Loading historical data...
Loading historical data...
Loading historical data...
Loading historical data...
Loading historical data...
Loading historical data...

Documentation

Showing up to 5 results
|